Zurück zum Katalog

TITAN 3C TRANSTAGE DEB

AktivMEO
NORAD 38704·DEBRIS·🇺🇸 United States

Gestartet Sep 26, 1968 von Cape Canaveral Space Force Station

Loading…

Nächste Überflüge (nächste 24 Stunden)

TLE

AktuellSource: Space-Track

Epoche: Sep 14, 2026, 03:45 UTC

1 38704U 68081AE  26257.15653763  .00000014  00000-0  00000-0 0  9998
2 38704   4.3360  63.0550 0205136 219.7045 139.0598  1.02193344 76919

Verfolge TITAN 3C TRANSTAGE DEB in Echtzeit mit AllMySat

Download on the App Store